AE5PL Weather Reports


time (UTC)temp
C
wind
direction
speed
KPH
gust
KPH
rain 1hr
cm
rain 24hr
cm
rain mn
cm
humidity
%
barometer
mb
20260505171645 26 225 3.2 20.9 0.00 0.00 0.00 71 1003.8
20260505171145 26 225 3.2 9.7 0.00 0.00 0.00 70 1003.8
20260505170645 26 225 4.8 9.7 0.00 0.00 0.00 70 1004.2
20260505170145 26 225 3.2 16.1 0.00 0.00 0.00 71 1004.0
20260505165645 26 225 4.8 9.7 0.00 0.00 0.00 71 1003.9
20260505165145 26 225 3.2 8.0 0.00 0.00 0.00 72 1003.8
20260505164645 26 225 3.2 9.7 0.00 0.00 0.00 72 1004.0
20260505164145 26 225 3.2 4.8 0.00 0.00 0.00 72 1004.0
20260505163645 26 225 1.6 8.0 0.00 0.00 0.00 71 1004.1
20260505163145 26 225 1.6 9.7 0.00 0.00 0.00 70 1004.3
20260505162645 26 247 3.2 6.4 0.00 0.00 0.00 71 1004.2
20260505162145 26 225 3.2 9.7 0.00 0.00 0.00 71 1004.0
20260505161645 26 225 1.6 17.7 0.00 0.00 0.00 70 1003.9
20260505161145 26 225 1.6 8.0 0.00 0.00 0.00 71 1003.9
20260505160645 26 225 3.2 11.3 0.00 0.00 0.00 71 1003.9
20260505160145 26 225 4.8 22.5 0.00 0.00 0.00 71 1003.8
20260505153145 25 225 4.8 12.9 0.00 0.00 0.00 76 1003.7
20260505152645 25 247 3.2 11.3 0.00 0.00 0.00 76 1003.8
20260505152145 25 247 3.2 11.3 0.00 0.00 0.00 77 1003.9
20260505151645 25 225 4.8 19.3 0.00 0.00 0.00 77 1003.8
20260505151145 25 225 3.2 12.9 0.00 0.00 0.00 76 1003.9
20260505150645 25 225 3.2 8.0 0.00 0.00 0.00 78 1003.8
20260505150145 25 247 3.2 9.7 0.00 0.00 0.00 79 1003.8
20260505140645 22 225 3.2 9.7 0.00 0.00 0.00 84 1003.8
20260505140145 22 225 1.6 6.4 0.00 0.00 0.00 84 1003.8
20260505130145 22 225 3.2 17.7 0.00 0.00 0.00 85 1003.9
20260505124645 21 225 6.4 24.1 0.00 0.00 0.00 86 1003.6
20260505124145 21 225 4.8 17.7 0.00 0.00 0.00 86 1003.6
20260505123645 21 180 4.8 17.7 0.00 0.00 0.00 86 1003.5
20260505123145 21 225 6.4 20.9 0.00 0.00 0.00 86 1003.6
20260505122645 21 180 4.8 12.9 0.00 0.00 0.00 87 1003.6
20260505122145 21 180 4.8 14.5 0.00 0.00 0.00 87 1003.6
20260505121645 21 247 4.8 12.9 0.00 0.00 0.00 87 1003.5
20260505121145 21 247 3.2 12.9 0.00 0.00 0.00 87 1003.4
20260505120645 21 180 3.2 12.9 0.00 0.00 0.00 87 1003.3
20260505120145 21 225 3.2 8.0 0.00 0.00 0.00 87 1003.3
20260505115645 21 225 3.2 9.7 0.00 0.00 0.00 87 1003.3
20260505115145 21 180 6.4 14.5 0.00 0.00 0.00 87 1003.2
20260505114645 21 180 4.8 14.5 0.00 0.00 0.00 87 1003.1
20260505114145 21 225 3.2 19.3 0.00 0.00 0.00 87 1003.1
20260505113645 21 180 3.2 9.7 0.00 0.00 0.00 87 1003.2
20260505113145 21 247 3.2 16.1 0.00 0.00 0.00 86 1003.3
20260505112645 21 202 6.4 19.3 0.00 0.00 0.00 86 1003.2
20260505112145 21 247 3.2 16.1 0.00 0.00 0.00 86 1003.1
20260505111645 21 225 4.8 17.7 0.00 0.00 0.00 86 1003.1
20260505111145 21 180 4.8 14.5 0.00 0.00 0.00 85 1003.0
20260505110645 21 225 3.2 16.1 0.00 0.00 0.00 85 1003.0
20260505110145 21 202 1.6 12.9 0.00 0.00 0.00 85 1003.1
20260505102145 21 225 4.8 17.7 0.00 0.00 0.00 86 1003.1
20260505101645 21 225 3.2 17.7 0.00 0.00 0.00 86 1003.1
20260505101145 21 225 6.4 25.7 0.00 0.00 0.00 86 1003.1
20260505100645 21 157 4.8 14.5 0.00 0.00 0.00 86 1003.0
20260505100145 21 202 6.4 22.5 0.00 0.00 0.00 86 1003.0
20260505095645 21 180 4.8 19.3 0.00 0.00 0.00 86 1003.1
20260505095145 21 225 4.8 17.7 0.00 0.00 0.00 86 1003.2
20260505094645 21 202 4.8 20.9 0.00 0.00 0.00 86 1003.3
20260505094145 21 225 4.8 19.3 0.00 0.00 0.00 86 1003.1
20260505093645 21 157 4.8 12.9 0.00 0.00 0.00 86 1003.3
20260505093145 21 225 4.8 12.9 0.00 0.00 0.00 86 1003.3
20260505092645 21 225 4.8 20.9 0.00 0.00 0.00 86 1003.5
20260505092145 21 202 4.8 17.7 0.00 0.00 0.00 86 1003.5
20260505091645 21 180 3.2 19.3 0.00 0.00 0.00 86 1003.5
20260505091145 21 225 4.8 11.3 0.00 0.00 0.00 86 1003.5
20260505090645 21 225 4.8 20.9 0.00 0.00 0.00 86 1003.4
20260505090145 21 225 4.8 24.1 0.00 0.00 0.00 86 1003.5
20260505085645 21 225 6.4 24.1 0.00 0.00 0.00 86 1003.5
20260505085145 21 225 4.8 20.9 0.00 0.00 0.00 86 1003.4
20260505084645 21 225 4.8 14.5 0.00 0.00 0.00 86 1003.4
20260505084145 21 225 6.4 20.9 0.00 0.00 0.00 86 1003.5
20260505083645 21 202 6.4 22.5 0.00 0.00 0.00 85 1003.4
20260505083145 21 225 3.2 9.7 0.00 0.00 0.00 85 1003.4
20260505082645 21 225 6.4 20.9 0.00 0.00 0.00 85 1003.4
20260505082145 21 202 4.8 17.7 0.00 0.00 0.00 85 1003.4
20260505081645 21 202 6.4 20.9 0.00 0.00 0.00 85 1003.4
20260505081145 21 225 4.8 14.5 0.00 0.00 0.00 84 1003.6
20260505080645 21 225 6.4 19.3 0.00 0.00 0.00 84 1003.6
20260505080145 21 202 3.2 16.1 0.00 0.00 0.00 84 1003.6
20260505075645 21 225 4.8 14.5 0.00 0.00 0.00 84 1003.7
20260505075145 21 180 4.8 14.5 0.00 0.00 0.00 84 1003.7
20260505074645 21 225 4.8 16.1 0.00 0.00 0.00 83 1003.8
20260505074145 21 225 3.2 16.1 0.00 0.00 0.00 83 1003.9
20260505073645 21 225 4.8 14.5 0.00 0.00 0.00 83 1004.0
20260505073145 21 225 4.8 19.3 0.00 0.00 0.00 83 1004.0
20260505072645 21 225 3.2 14.5 0.00 0.00 0.00 82 1004.1
20260505072145 22 225 4.8 19.3 0.00 0.00 0.00 82 1004.1
20260505071645 22 225 3.2 19.3 0.00 0.00 0.00 82 1004.1
20260505071145 22 202 4.8 20.9 0.00 0.00 0.00 82 1004.2
20260505070645 22 225 6.4 20.9 0.00 0.00 0.00 82 1004.2
20260505070145 22 225 4.8 9.7 0.00 0.00 0.00 81 1004.4
20260505065645 22 202 4.8 17.7 0.00 0.00 0.00 81 1004.4
20260505065145 22 225 4.8 17.7 0.00 0.00 0.00 81 1004.6
20260505064645 22 225 4.8 17.7 0.00 0.00 0.00 81 1004.6
20260505064145 22 202 4.8 16.1 0.00 0.00 0.00 81 1004.6
20260505063645 22 202 6.4 24.1 0.00 0.00 0.00 81 1004.7
20260505063145 22 225 3.2 16.1 0.00 0.00 0.00 80 1004.8
20260505062645 22 225 4.8 19.3 0.00 0.00 0.00 80 1004.7
20260505062145 22 247 4.8 11.3 0.00 0.00 0.00 80 1004.7
20260505061645 22 180 6.4 24.1 0.00 0.00 0.00 80 1004.9
20260505061145 22 225 6.4 29.0 0.00 0.00 0.00 80 1004.7
20260505060645 22 225 9.7 29.0 0.00 0.00 0.00 80 1004.7
20260505060145 22 180 9.7 30.6 0.00 0.00 0.00 80 1004.7
20260505055645 22 180 11.3 24.1 0.00 0.00 0.00 80 1004.7
20260505055145 22 225 8.0 19.3 0.00 0.00 0.00 79 1004.9
20260505054645 22 180 8.0 20.9 0.00 0.00 0.00 79 1005.0
20260505054145 22 180 8.0 19.3 0.00 0.00 0.00 79 1005.1
20260505053645 22 180 9.7 29.0 0.00 0.00 0.00 79 1005.1
20260505053145 22 180 8.0 17.7 0.00 0.00 0.00 79 1005.1
20260505052645 22 180 9.7 17.7 0.00 0.00 0.00 78 1005.2
20260505052145 22 180 8.0 19.3 0.00 0.00 0.00 78 1005.3
20260505051645 22 180 9.7 22.5 0.00 0.00 0.00 78 1005.3
20260505051145 22 202 9.7 27.4 0.00 0.00 0.00 77 1005.4
20260505050645 22 180 11.3 30.6 0.00 0.00 0.00 77 1005.3
20260505050145 22 180 12.9 27.4 0.00 0.00 0.00 77 1005.3
20260505041645 22 180 9.7 24.1 0.00 0.00 0.00 75 1005.5
20260505041145 22 180 11.3 24.1 0.00 0.00 0.00 75 1005.6
20260505040645 22 157 11.3 27.4 0.00 0.00 0.00 75 1005.7
20260505040145 22 180 9.7 20.9 0.00 0.00 0.00 74 1005.6
20260505035645 22 180 11.3 24.1 0.00 0.00 0.00 74 1005.6
20260505035145 22 180 11.3 22.5 0.00 0.00 0.00 74 1005.5
20260505034645 22 180 12.9 24.1 0.00 0.00 0.00 74 1005.4
20260505034145 22 180 11.3 27.4 0.00 0.00 0.00 74 1005.6
20260505033645 22 180 11.3 24.1 0.00 0.00 0.00 74 1005.5
20260505033145 22 180 12.9 29.0 0.00 0.00 0.00 74 1005.7
20260505032645 22 180 12.9 27.4 0.00 0.00 0.00 73 1005.6
20260505032145 22 180 9.7 24.1 0.00 0.00 0.00 73 1005.7
20260505031645 23 180 11.3 22.5 0.00 0.00 0.00 73 1005.6
20260505031145 23 180 9.7 24.1 0.00 0.00 0.00 73 1005.5
20260505030645 23 180 9.7 24.1 0.00 0.00 0.00 73 1005.6
20260505030145 23 180 9.7 22.5 0.00 0.00 0.00 73 1005.5
20260505025645 23 180 8.0 24.1 0.00 0.00 0.00 73 1005.5
20260505025145 23 180 8.0 19.3 0.00 0.00 0.00 72 1005.5
20260505024645 23 180 9.7 22.5 0.00 0.00 0.00 72 1005.5
20260505024145 23 225 8.0 19.3 0.00 0.00 0.00 72 1005.5
20260505023645 23 180 8.0 22.5 0.00 0.00 0.00 72 1005.5
20260505023145 23 180 8.0 30.6 0.00 0.00 0.00 71 1005.5
20260505022645 23 202 6.4 19.3 0.00 0.00 0.00 71 1005.5
20260505022145 23 225 8.0 20.9 0.00 0.00 0.00 71 1005.4
20260505021645 23 180 8.0 20.9 0.00 0.00 0.00 71 1005.4
20260505021145 23 225 4.8 19.3 0.00 0.00 0.00 70 1005.5
20260505020645 23 202 4.8 16.1 0.00 0.00 0.00 70 1005.4
20260505020145 23 202 6.4 19.3 0.00 0.00 0.00 70 1005.4
20260505015645 23 225 4.8 16.1 0.00 0.00 0.00 70 1005.4
20260505015145 23 202 8.0 20.9 0.00 0.00 0.00 70 1005.4
20260505014645 23 225 6.4 12.9 0.00 0.00 0.00 69 1005.4
20260505014145 23 180 9.7 22.5 0.00 0.00 0.00 69 1005.5
20260505013645 23 180 9.7 25.7 0.00 0.00 0.00 68 1005.5
20260505013145 23 225 8.0 19.3 0.00 0.00 0.00 68 1005.4
20260505012645 23 225 6.4 17.7 0.00 0.00 0.00 68 1005.4
20260505012145 23 202 6.4 19.3 0.00 0.00 0.00 68 1005.5
20260505011645 24 180 8.0 25.7 0.00 0.00 0.00 67 1005.4
20260505011145 24 180 8.0 24.1 0.00 0.00 0.00 67 1005.4
20260505010645 24 225 8.0 24.1 0.00 0.00 0.00 67 1005.4
20260505010145 24 180 8.0 25.7 0.00 0.00 0.00 66 1005.4
20260505005645 24 202 8.0 20.9 0.00 0.00 0.00 66 1005.3
20260505005145 24 225 9.7 25.7 0.00 0.00 0.00 65 1005.3
20260505004645 24 180 9.7 29.0 0.00 0.00 0.00 65 1005.3
20260505004145 25 180 16.1 37.0 0.00 0.00 0.00 65 1005.4
20260505003645 25 225 9.7 25.7 0.00 0.00 0.00 64 1005.5
20260505003145 25 202 11.3 30.6 0.00 0.00 0.00 64 1005.5
20260505002645 25 180 11.3 32.2 0.00 0.00 0.00 63 1005.4
20260505002145 25 225 11.3 33.8 0.00 0.00 0.00 63 1005.4
20260505001645 25 225 6.4 24.1 0.00 0.00 0.00 63 1005.5
20260505001145 25 202 9.7 29.0 0.00 0.00 0.00 63 1005.5
20260505000645 25 202 16.1 38.6 0.00 0.00 0.00 63 1005.3
20260505000145 25 180 12.9 32.2 0.00 0.00 0.00 63 1005.3
20260504235645 25 180 14.5 29.0 0.00 0.00 0.00 63 1005.3
20260504235145 25 180 12.9 32.2 0.00 0.00 0.00 63 1005.6
20260504234645 25 180 11.3 29.0 0.00 0.00 0.00 63 1005.6
20260504234145 25 202 9.7 27.4 0.00 0.00 0.00 63 1005.6
20260504233645 25 157 9.7 24.1 0.00 0.00 0.00 62 1005.7
20260504233145 26 225 8.0 17.7 0.00 0.00 0.00 61 1005.8
20260504232645 26 225 11.3 24.1 0.00 0.00 0.00 61 1005.6
20260504232145 26 225 11.3 30.6 0.00 0.00 0.00 61 1005.7
20260504231645 26 180 8.0 25.7 0.00 0.00 0.00 60 1005.9
20260504231145 26 202 8.0 24.1 0.00 0.00 0.00 59 1006.0
20260504230645 26 202 9.7 19.3 0.00 0.00 0.00 59 1005.9
20260504230145 26 180 16.1 37.0 0.00 0.00 0.00 59 1005.9
20260504225645 26 180 9.7 30.6 0.00 0.00 0.00 59 1006.2
20260504225145 26 180 9.7 27.4 0.00 0.00 0.00 59 1006.2
20260504224645 26 225 12.9 30.6 0.00 0.00 0.00 60 1006.1
20260504224145 26 180 12.9 30.6 0.00 0.00 0.00 59 1006.0
20260504223645 26 180 14.5 37.0 0.00 0.00 0.00 59 1006.1
20260504223145 26 202 19.3 40.2 0.00 0.00 0.00 59 1006.0
20260504222645 26 180 16.1 37.0 0.00 0.00 0.00 60 1006.0
20260504222145 26 180 19.3 33.8 0.00 0.00 0.00 59 1006.1
20260504221645 26 180 17.7 35.4 0.00 0.00 0.00 58 1006.1
20260504221145 26 180 19.3 41.8 0.00 0.00 0.00 59 1006.2
20260504220645 26 202 17.7 38.6 0.00 0.00 0.00 58 1006.2
20260504220145 26 180 16.1 37.0 0.00 0.00 0.00 57 1006.3
20260504215645 26 180 20.9 40.2 0.00 0.00 0.00 57 1006.3
20260504215145 26 225 9.7 24.1 0.00 0.00 0.00 58 1006.4
20260504214645 26 202 12.9 40.2 0.00 0.00 0.00 57 1006.6
20260504214145 26 180 17.7 38.6 0.00 0.00 0.00 56 1006.6
20260504213645 26 202 12.9 29.0 0.00 0.00 0.00 58 1006.7
20260504213145 26 180 16.1 38.6 0.00 0.00 0.00 56 1006.8
20260504212645 26 202 16.1 37.0 0.00 0.00 0.00 57 1006.7
20260504212145 26 180 12.9 33.8 0.00 0.00 0.00 57 1007.0
20260504211645 26 180 19.3 38.6 0.00 0.00 0.00 56 1007.0
20260504211145 26 180 14.5 33.8 0.00 0.00 0.00 55 1007.2
20260504210645 26 180 19.3 37.0 0.00 0.00 0.00 55 1007.3
20260504210145 26 180 19.3 35.4 0.00 0.00 0.00 54 1007.4
20260504205645 26 225 17.7 49.9 0.00 0.00 0.00 55 1007.4
20260504205145 26 180 25.7 49.9 0.00 0.00 0.00 54 1007.6
20260504204645 26 180 11.3 33.8 0.00 0.00 0.00 55 1007.5
20260504204145 26 180 14.5 30.6 0.00 0.00 0.00 54 1007.7
20260504203645 26 180 16.1 43.5 0.00 0.00 0.00 53 1007.8
20260504203145 26 180 16.1 33.8 0.00 0.00 0.00 55 1008.0
20260504202645 26 180 16.1 37.0 0.00 0.00 0.00 54 1008.0
20260504202145 26 225 11.3 48.3 0.00 0.00 0.00 54 1008.1
20260504201645 26 180 20.9 48.3 0.00 0.00 0.00 53 1008.2
20260504201145 26 225 6.4 17.7 0.00 0.00 0.00 53 1008.4
20260504200645 26 202 16.1 32.2 0.00 0.00 0.00 54 1008.6
20260504200145 25 180 17.7 37.0 0.00 0.00 0.00 53 1008.7
20260504195645 25 180 16.1 37.0 0.00 0.00 0.00 53 1008.7
20260504195145 26 180 20.9 43.5 0.00 0.00 0.00 53 1008.7
20260504194645 26 225 17.7 37.0 0.00 0.00 0.00 52 1008.8
20260504194145 26 180 12.9 37.0 0.00 0.00 0.00 52 1008.9
20260504193645 26 157 16.1 40.2 0.00 0.00 0.00 53 1008.8
20260504193145 26 202 16.1 37.0 0.00 0.00 0.00 51 1008.9
20260504192645 26 180 9.7 32.2 0.00 0.00 0.00 51 1009.1
20260504192145 26 225 6.4 19.3 0.00 0.00 0.00 51 1009.2
20260504191645 25 180 17.7 38.6 0.00 0.00 0.00 51 1009.3
20260504191145 25 180 16.1 38.6 0.00 0.00 0.00 50 1009.4
20260504190645 25 180 20.9 35.4 0.00 0.00 0.00 51 1009.4
20260504190145 25 180 9.7 27.4 0.00 0.00 0.00 51 1009.5
20260504185645 25 180 19.3 37.0 0.00 0.00 0.00 50 1009.7
20260504185145 25 180 17.7 41.8 0.00 0.00 0.00 52 1009.6
20260504184645 25 180 20.9 38.6 0.00 0.00 0.00 50 1009.5
20260504184145 25 180 16.1 32.2 0.00 0.00 0.00 50 1009.6
20260504183645 25 180 12.9 35.4 0.00 0.00 0.00 50 1009.7
20260504183145 25 180 20.9 37.0 0.00 0.00 0.00 50 1009.9
20260504182645 25 180 14.5 33.8 0.00 0.00 0.00 51 1009.9
20260504182145 25 180 9.7 32.2 0.00 0.00 0.00 52 1010.0
20260504181645 25 180 16.1 35.4 0.00 0.00 0.00 51 1010.1
20260504181145 25 180 17.7 40.2 0.00 0.00 0.00 51 1010.1
20260504180645 24 202 16.1 40.2 0.00 0.00 0.00 52 1010.2
20260504180145 25 180 20.9 41.8 0.00 0.00 0.00 51 1010.3
20260504175645 25 225 12.9 33.8 0.00 0.00 0.00 52 1010.3
20260504175145 25 225 9.7 29.0 0.00 0.00 0.00 53 1010.4
20260504174645 25 225 12.9 29.0 0.00 0.00 0.00 52 1010.7
20260504174145 25 180 4.8 17.7 0.00 0.00 0.00 51 1010.8
20260504173645 24 225 6.4 19.3 0.00 0.00 0.00 51 1010.8
20260504173145 24 202 9.7 33.8 0.00 0.00 0.00 52 1011.0
20260504172645 24 180 11.3 38.6 0.00 0.00 0.00 51 1011.0
20260504172145 24 180 14.5 30.6 0.00 0.00 0.00 51 1011.2